| time (UTC) | temp C | wind direction | speed KPH | gust KPH | rain 1hr cm | rain 24hr cm | rain mn cm | humidity % | barometer mb |
| 20260507113018 | 8 | 167 | 3.2 | 4.8 | 0.00 | 0.00 | 0.00 | 61 | 1016.9 |
| 20260507112034 | 10 | 133 | 4.8 | 11.3 | 0.00 | 0.00 | 0.00 | 60 | 1016.9 |
| 20260507111049 | 10 | 114 | 4.8 | 14.5 | 0.00 | 0.00 | 0.00 | 56 | 1017.0 |
| 20260507110045 | 10 | 112 | 4.8 | 9.7 | 0.00 | 0.00 | 0.00 | 57 | 1017.0 |
| 20260507105020 | 9 | 166 | 1.6 | 4.8 | 0.00 | 0.00 | 0.00 | 60 | 1017.1 |
| 20260507104035 | 10 | 171 | 1.6 | 4.8 | 0.00 | 0.00 | 0.00 | 59 | 1016.9 |
| 20260507103051 | 8 | 189 | 1.6 | 3.2 | 0.00 | 0.00 | 0.00 | 65 | 1016.8 |
| 20260507102026 | 7 | 214 | 1.6 | 3.2 | 0.00 | 0.00 | 0.00 | 66 | 1017.0 |
| 20260507101022 | 8 | 147 | 3.2 | 6.4 | 0.00 | 0.00 | 0.00 | 56 | 1017.0 |
| 20260507100016 | 10 | 203 | 1.6 | 3.2 | 0.00 | 0.00 | 0.00 | 53 | 1016.6 |
| 20260507095032 | 10 | 171 | 1.6 | 3.2 | 0.00 | 0.00 | 0.00 | 50 | 1016.3 |
| 20260507094028 | 12 | 95 | 3.2 | 9.7 | 0.00 | 0.00 | 0.00 | 49 | 1016.0 |
| 20260507093044 | 11 | 189 | 3.2 | 6.4 | 0.00 | 0.00 | 0.00 | 51 | 1016.0 |
| 20260507092038 | 12 | 150 | 3.2 | 6.4 | 0.00 | 0.00 | 0.00 | 51 | 1016.1 |
| 20260507091033 | 11 | 147 | 1.6 | 3.2 | 0.00 | 0.00 | 0.00 | 53 | 1016.1 |
| 20260507090028 | 11 | 124 | 3.2 | 9.7 | 0.00 | 0.00 | 0.00 | 51 | 1015.9 |
| 20260507085105 | 10 | 131 | 3.2 | 4.8 | 0.00 | 0.00 | 0.00 | 51 | 1016.1 |
| 20260507084020 | 11 | 116 | 3.2 | 4.8 | 0.00 | 0.00 | 0.00 | 50 | 1016.1 |
| 20260507083035 | 10 | 243 | 3.2 | 9.7 | 0.00 | 0.00 | 0.00 | 47 | 1016.1 |
| 20260507082031 | 10 | 142 | 1.6 | 3.2 | 0.00 | 0.00 | 0.00 | 50 | 1016.0 |
| 20260507081027 | 9 | 226 | 1.6 | 4.8 | 0.00 | 0.00 | 0.00 | 54 | 1016.0 |
| 20260507080022 | 8 | 145 | 1.6 | 4.8 | 0.00 | 0.00 | 0.00 | 55 | 1015.9 |
| 20260507075018 | 8 | 189 | 1.6 | 3.2 | 0.00 | 0.00 | 0.00 | 56 | 1016.0 |
| 20260507074033 | 8 | 90 | 3.2 | 6.4 | 0.00 | 0.00 | 0.00 | 59 | 1015.9 |
| 20260507073029 | 8 | 108 | 3.2 | 6.4 | 0.00 | 0.00 | 0.00 | 63 | 1015.8 |
| 20260507072025 | 8 | 82 | 1.6 | 4.8 | 0.00 | 0.00 | 0.00 | 59 | 1015.7 |
| 20260507071020 | 7 | 137 | 1.6 | 3.2 | 0.00 | 0.00 | 0.00 | 62 | 1015.7 |
| 20260507070055 | 7 | 145 | 1.6 | 3.2 | 0.00 | 0.00 | 0.00 | 66 | 1015.6 |
| 20260507065031 | 6 | 147 | 1.6 | 3.2 | 0.00 | 0.00 | 0.00 | 69 | 1015.7 |
| 20260507064026 | 6 | 166 | 0.0 | 1.6 | 0.00 | 0.00 | 0.00 | 73 | 1015.4 |
| 20260507063021 | 5 | 130 | 1.6 | 3.2 | 0.00 | 0.00 | 0.00 | 76 | 1015.3 |
| 20260507062017 | 5 | 182 | 1.6 | 3.2 | 0.00 | 0.00 | 0.00 | 78 | 1015.3 |
| 20260507061033 | 5 | 205 | 0.0 | 1.6 | 0.00 | 0.00 | 0.00 | 79 | 1015.1 |
| 20260507060027 | 5 | 210 | 0.0 | 1.6 | 0.00 | 0.00 | 0.00 | 79 | 1015.0 |
| 20260507055022 | 3 | 204 | 0.0 | 1.6 | 0.00 | 0.00 | 0.00 | 81 | 1014.9 |
| 20260507054019 | 3 | 203 | 0.0 | 1.6 | 0.00 | 0.00 | 0.00 | 81 | 1015.0 |
| 20260507053034 | 3 | 212 | 0.0 | 3.2 | 0.00 | 0.00 | 0.00 | 81 | 1014.9 |
| 20260507052029 | 3 | 222 | 1.6 | 3.2 | 0.00 | 0.00 | 0.00 | 82 | 1014.9 |
| 20260507051024 | 3 | 211 | 1.6 | 3.2 | 0.00 | 0.00 | 0.00 | 82 | 1014.8 |
| 20260507050039 | 3 | 172 | 1.6 | 1.6 | 0.00 | 0.00 | 0.00 | 82 | 1014.7 |
| 20260507045035 | 3 | 222 | 0.0 | 1.6 | 0.00 | 0.00 | 0.00 | 85 | 1014.7 |
| 20260507044030 | 3 | 233 | 1.6 | 3.2 | 0.00 | 0.00 | 0.00 | 87 | 1014.7 |
| 20260507043025 | 2 | 244 | 3.2 | 4.8 | 0.00 | 0.00 | 0.00 | 88 | 1014.5 |
| 20260507042020 | 2 | 172 | 1.6 | 3.2 | 0.00 | 0.00 | 0.00 | 89 | 1014.3 |
| 20260507041036 | 2 | 231 | 3.2 | 6.4 | 0.00 | 0.00 | 0.00 | 88 | 1014.7 |
| 20260507040031 | 2 | 233 | 1.6 | 3.2 | 0.00 | 0.00 | 0.00 | 89 | 1014.2 |
| 20260507035027 | 2 | 149 | 3.2 | 4.8 | 0.00 | 0.00 | 0.00 | 88 | 1014.3 |
| 20260507034022 | 2 | 152 | 1.6 | 3.2 | 0.00 | 0.00 | 0.00 | 87 | 1014.4 |
| 20260507033017 | 1 | 133 | 1.6 | 3.2 | 0.00 | 0.00 | 0.00 | 87 | 1014.6 |
| 20260507032032 | 1 | 209 | 1.6 | 3.2 | 0.00 | 0.00 | 0.00 | 88 | 1014.8 |
| 20260507031047 | 1 | 211 | 1.6 | 3.2 | 0.00 | 0.00 | 0.00 | 87 | 1014.6 |
| 20260507030042 | 1 | 214 | 1.6 | 3.2 | 0.00 | 0.00 | 0.00 | 86 | 1014.3 |
| 20260507025017 | 1 | 201 | 0.0 | 1.6 | 0.00 | 0.00 | 0.00 | 89 | 1014.2 |
| 20260507024033 | 0 | 0.0 | 0.0 | 0.00 | 0.00 | 0.00 | 89 | 1014.3 | |
| 20260507023029 | 0 | 0.0 | 0.0 | 0.00 | 0.00 | 0.00 | 88 | 1014.3 | |
| 20260507022023 | 0 | 184 | 0.0 | 1.6 | 0.00 | 0.00 | 0.00 | 87 | 1014.2 |
| 20260507021018 | 1 | 208 | 0.0 | 1.6 | 0.00 | 0.00 | 0.00 | 87 | 1014.2 |
| 20260507020034 | 0 | 214 | 0.0 | 1.6 | 0.00 | 0.00 | 0.00 | 88 | 1014.3 |
| 20260507015029 | 0 | 0.0 | 0.0 | 0.00 | 0.00 | 0.00 | 88 | 1014.3 | |
| 20260507014024 | 0 | 0.0 | 0.0 | 0.00 | 0.00 | 0.00 | 87 | 1014.1 | |
| 20260507013040 | 0 | 183 | 0.0 | 1.6 | 0.00 | 0.00 | 0.00 | 86 | 1014.1 |
| 20260507012055 | 0 | 217 | 0.0 | 1.6 | 0.00 | 0.00 | 0.00 | 87 | 1014.1 |
| 20260507011030 | 0 | 225 | 1.6 | 3.2 | 0.00 | 0.00 | 0.00 | 89 | 1014.0 |
| 20260507010025 | 0 | 0.0 | 0.0 | 0.00 | 0.00 | 0.00 | 87 | 1013.9 | |
| 20260507005020 | 0 | 0.0 | 0.0 | 0.00 | 0.00 | 0.00 | 84 | 1013.8 | |
| 20260507004035 | 0 | 0.0 | 0.0 | 0.00 | 0.00 | 0.00 | 84 | 1013.7 | |
| 20260507003030 | 1 | 166 | 0.0 | 1.6 | 0.00 | 0.00 | 0.00 | 80 | 1013.7 |
| 20260507002025 | 1 | 0.0 | 0.0 | 0.00 | 0.00 | 0.00 | 80 | 1013.8 | |
| 20260507001021 | 2 | 0.0 | 0.0 | 0.00 | 0.00 | 0.00 | 77 | 1013.9 | |
| 20260507000015 | 2 | 0.0 | 0.0 | 0.00 | 0.00 | 0.00 | 75 | 1013.8 | |
| 20260506235031 | 3 | 188 | 0.0 | 1.6 | 0.00 | 0.00 | 0.00 | 73 | 1013.8 |
| 20260506234047 | 3 | 0.0 | 0.0 | 0.00 | 0.00 | 0.00 | 69 | 1013.7 | |
| 20260506233042 | 3 | 0.0 | 0.0 | 0.00 | 0.00 | 0.00 | 69 | 1013.7 | |
| 20260506232017 | 4 | 202 | 0.0 | 1.6 | 0.00 | 0.00 | 0.00 | 65 | 1013.5 |
| 20260506231032 | 4 | 179 | 0.0 | 1.6 | 0.00 | 0.00 | 0.00 | 66 | 1013.4 |
| 20260506230108 | 5 | 211 | 1.6 | 4.8 | 0.00 | 0.00 | 0.00 | 62 | 1013.3 |
| 20260506225103 | 4 | 194 | 1.6 | 4.8 | 0.00 | 0.00 | 0.00 | 64 | 1013.2 |
| 20260506224018 | 5 | 203 | 1.6 | 3.2 | 0.00 | 0.00 | 0.00 | 62 | 1013.2 |
| 20260506223034 | 5 | 230 | 3.2 | 9.7 | 0.00 | 0.00 | 0.00 | 63 | 1013.2 |
| 20260506222029 | 5 | 223 | 1.6 | 4.8 | 0.00 | 0.00 | 0.00 | 63 | 1012.8 |
| 20260506221025 | 5 | 187 | 0.0 | 1.6 | 0.00 | 0.00 | 0.00 | 63 | 1012.5 |
| 20260506220040 | 5 | 183 | 1.6 | 4.8 | 0.00 | 0.00 | 0.00 | 62 | 1012.5 |
| 20260506215035 | 5 | 183 | 0.0 | 1.6 | 0.00 | 0.00 | 0.00 | 60 | 1012.6 |
| 20260506214031 | 5 | 209 | 1.6 | 3.2 | 0.00 | 0.00 | 0.00 | 60 | 1012.5 |
| 20260506213048 | 6 | 177 | 1.6 | 3.2 | 0.00 | 0.00 | 0.00 | 59 | 1012.5 |
| 20260506212021 | 5 | 211 | 0.0 | 1.6 | 0.00 | 0.00 | 0.00 | 61 | 1012.3 |
| 20260506211017 | 5 | 0.0 | 0.0 | 0.00 | 0.00 | 0.00 | 62 | 1012.2 | |
| 20260506210033 | 5 | 188 | 0.0 | 1.6 | 0.00 | 0.00 | 0.00 | 64 | 1012.3 |
| 20260506205028 | 6 | 182 | 0.0 | 1.6 | 0.00 | 0.00 | 0.00 | 61 | 1012.2 |
| 20260506204023 | 6 | 217 | 1.6 | 1.6 | 0.00 | 0.00 | 0.00 | 60 | 1012.0 |
| 20260506203019 | 5 | 203 | 0.0 | 1.6 | 0.00 | 0.00 | 0.00 | 68 | 1012.1 |
| 20260506202034 | 5 | 169 | 1.6 | 3.2 | 0.00 | 0.00 | 0.00 | 65 | 1012.1 |
| 20260506201030 | 6 | 190 | 1.6 | 3.2 | 0.00 | 0.00 | 0.00 | 62 | 1012.3 |
| 20260506200025 | 6 | 224 | 1.6 | 3.2 | 0.00 | 0.00 | 0.00 | 65 | 1012.1 |
| 20260506195039 | 6 | 205 | 0.0 | 1.6 | 0.00 | 0.00 | 0.00 | 64 | 1012.2 |
| 20260506194015 | 6 | 0.0 | 0.0 | 0.00 | 0.00 | 0.00 | 63 | 1012.0 | |
| 20260506193031 | 6 | 0.0 | 0.0 | 0.00 | 0.00 | 0.00 | 62 | 1012.2 | |
| 20260506192026 | 7 | 177 | 0.0 | 1.6 | 0.00 | 0.00 | 0.00 | 60 | 1012.3 |
| 20260506191021 | 7 | 179 | 0.0 | 1.6 | 0.00 | 0.00 | 0.00 | 62 | 1012.3 |
| 20260506190017 | 7 | 127 | 1.6 | 4.8 | 0.00 | 0.00 | 0.00 | 60 | 1012.2 |
| 20260506185032 | 7 | 186 | 0.0 | 3.2 | 0.00 | 0.00 | 0.00 | 61 | 1012.2 |
| 20260506184028 | 7 | 169 | 0.0 | 3.2 | 0.00 | 0.00 | 0.00 | 58 | 1012.1 |
| 20260506183023 | 7 | 164 | 0.0 | 3.2 | 0.00 | 0.00 | 0.00 | 60 | 1012.1 |
| 20260506182018 | 8 | 143 | 1.6 | 3.2 | 0.00 | 0.00 | 0.00 | 60 | 1012.1 |
| 20260506181034 | 8 | 176 | 0.0 | 1.6 | 0.00 | 0.00 | 0.00 | 59 | 1011.9 |
| 20260506180050 | 8 | 155 | 1.6 | 4.8 | 0.00 | 0.00 | 0.00 | 59 | 1011.9 |
| 20260506175025 | 8 | 133 | 1.6 | 6.4 | 0.00 | 0.00 | 0.00 | 58 | 1012.0 |
| 20260506174039 | 8 | 151 | 1.6 | 4.8 | 0.00 | 0.00 | 0.00 | 57 | 1012.0 |
| 20260506173035 | 8 | 156 | 3.2 | 6.4 | 0.00 | 0.00 | 0.00 | 57 | 1011.9 |
| 20260506172029 | 8 | 131 | 3.2 | 6.4 | 0.00 | 0.00 | 0.00 | 56 | 1012.0 |
| 20260506171145 | 8 | 100 | 3.2 | 6.4 | 0.00 | 0.00 | 0.00 | 55 | 1011.9 |
| 20260506170019 | 9 | 156 | 3.2 | 6.4 | 0.00 | 0.00 | 0.00 | 54 | 1011.9 |
| 20260506165036 | 10 | 150 | 3.2 | 4.8 | 0.00 | 0.00 | 0.00 | 53 | 1012.0 |
| 20260506164030 | 11 | 172 | 1.6 | 3.2 | 0.00 | 0.00 | 0.00 | 44 | 1011.9 |
| 20260506163026 | 11 | 220 | 3.2 | 11.3 | 0.00 | 0.00 | 0.00 | 37 | 1012.0 |
| 20260506162042 | 11 | 192 | 4.8 | 12.9 | 0.00 | 0.00 | 0.00 | 36 | 1011.9 |
| 20260506161017 | 11 | 185 | 3.2 | 9.7 | 0.00 | 0.00 | 0.00 | 40 | 1011.9 |
| 20260506160033 | 10 | 178 | 3.2 | 6.4 | 0.00 | 0.00 | 0.00 | 47 | 1012.0 |
| 20260506155048 | 10 | 155 | 1.6 | 4.8 | 0.00 | 0.00 | 0.00 | 46 | 1012.0 |
| 20260506154043 | 10 | 100 | 8.0 | 16.1 | 0.00 | 0.00 | 0.00 | 46 | 1012.0 |
| 20260506153018 | 10 | 144 | 4.8 | 12.9 | 0.00 | 0.00 | 0.00 | 46 | 1012.1 |
| 20260506152053 | 10 | 137 | 3.2 | 11.3 | 0.00 | 0.00 | 0.00 | 45 | 1012.2 |
| 20260506151028 | 11 | 126 | 4.8 | 9.7 | 0.00 | 0.00 | 0.00 | 44 | 1012.1 |
| 20260506150023 | 12 | 199 | 1.6 | 4.8 | 0.00 | 0.00 | 0.00 | 33 | 1012.3 |
| 20260506145018 | 12 | 210 | 4.8 | 9.7 | 0.00 | 0.00 | 0.00 | 32 | 1012.3 |
| 20260506144034 | 12 | 213 | 3.2 | 11.3 | 0.00 | 0.00 | 0.00 | 33 | 1012.4 |
| 20260506143029 | 12 | 187 | 3.2 | 6.4 | 0.00 | 0.00 | 0.00 | 33 | 1012.4 |
| 20260506142024 | 11 | 215 | 4.8 | 6.4 | 0.00 | 0.00 | 0.00 | 34 | 1012.6 |
| 20260506141020 | 11 | 232 | 6.4 | 12.9 | 0.00 | 0.00 | 0.00 | 34 | 1012.7 |
| 20260506140015 | 11 | 255 | 9.7 | 17.7 | 0.00 | 0.00 | 0.00 | 35 | 1012.8 |
| 20260506135030 | 11 | 239 | 8.0 | 14.5 | 0.00 | 0.00 | 0.00 | 34 | 1012.8 |
| 20260506134026 | 11 | 213 | 4.8 | 6.4 | 0.00 | 0.00 | 0.00 | 35 | 1012.8 |
| 20260506133021 | 12 | 206 | 6.4 | 14.5 | 0.00 | 0.00 | 0.00 | 33 | 1012.8 |
| 20260506132017 | 11 | 197 | 4.8 | 11.3 | 0.00 | 0.00 | 0.00 | 34 | 1013.0 |
| 20260506131032 | 12 | 207 | 4.8 | 14.5 | 0.00 | 0.00 | 0.00 | 33 | 1013.1 |
| 20260506130047 | 11 | 254 | 6.4 | 12.9 | 0.00 | 0.00 | 0.00 | 32 | 1012.9 |
| 20260506125022 | 11 | 241 | 6.4 | 11.3 | 0.00 | 0.00 | 0.00 | 32 | 1013.0 |
| 20260506124017 | 12 | 242 | 6.4 | 12.9 | 0.00 | 0.00 | 0.00 | 31 | 1013.0 |
| 20260506123032 | 11 | 253 | 8.0 | 16.1 | 0.00 | 0.00 | 0.00 | 32 | 1013.0 |
| 20260506122028 | 11 | 248 | 9.7 | 17.7 | 0.00 | 0.00 | 0.00 | 32 | 1012.8 |
| 20260506121024 | 12 | 230 | 6.4 | 14.5 | 0.00 | 0.00 | 0.00 | 31 | 1012.8 |
| 20260506120018 | 10 | 250 | 4.8 | 14.5 | 0.00 | 0.00 | 0.00 | 32 | 1013.0 |
| 20260506115034 | 11 | 252 | 6.4 | 12.9 | 0.00 | 0.00 | 0.00 | 31 | 1013.0 |
| 20260506114029 | 10 | 231 | 1.6 | 6.4 | 0.00 | 0.00 | 0.00 | 31 | 1013.1 |